[[{"header":{"parameterUnit":"m.s-1","parameterCategory":1,"la1":30.2991,"la2":30.254,"lo1":-89.0895,"lo2":-89.0444,"dy":0.0017,"dx":0.0017,"nx":28,"ny":28,"refTime":"2024-06-24T03:00:00:Z","depth":0,"parameterNumber":2,"parameterNumberName":"U-component_of_WINDS"},"data":[0,0,0,0,0,0,0,0,0,0,0,0,0,0,0,0,0,0,0,0,0,0,0,0,0,0,0,0,0,0,0,0,0,0,0,0,0,0,0,0,0,0,0,0,0,0,0,0,0,0,0,0,0,0,0,0,0,0,2.1215,2.1217,0,2.1367,2.1369,2.137,2.1414,2.1413,2.1412,2.1412,2.1569,2.1574,2.1579,0,0,0,0,0,0,0,0,0,0,0,0,0,2.0964,2.0968,2.1215,2.1217,2.1219,2.1367,2.1369,2.1371,2.1414,2.1413,2.1412,2.1411,2.1567,2.1573,2.1579,0,0,0,0,0,0,0,0,0,0,0,0,0,2.109,2.097,2.1215,2.1258,2.1264,2.1366,2.1369,2.1371,2.1414,2.1413,2.1412,2.1411,2.1565,2.1573,2.158,2.1651,0,0,2.1603,2.1606,0,0,0,0,0,0,0,0,2.1083,2.1099,2.125,2.1255,2.1262,2.137,2.1338,2.1465,2.1415,2.1357,2.1412,2.141,2.1504,2.1516,2.1548,2.1658,2.1665,2.1603,2.1608,2.1611,2.1613,0,0,0,0,0,0,0,2.1074,2.1093,2.1275,2.1252,2.1259,2.1271,2.1287,2.1362,2.1436,2.1362,2.1366,2.1383,2.1507,2.154,2.1552,2.1667,2.1603,2.161,2.1614,2.1617,2.1843,2.1844,0,0,0,0,0,0,2.1058,2.1086,2.127,2.128,2.1167,2.1276,2.1295,2.1337,2.1435,2.1449,2.1384,2.1384,2.1528,2.1543,2.1557,2.1646,2.1611,2.1618,2.1622,2.1841,2.1843,2.1845,0,0,0,0,0,0,2.1052,2.1074,2.1264,2.1184,2.1209,2.1282,2.1329,2.134,2.1374,2.1451,2.1465,2.1404,2.1528,2.1547,2.1627,2.1652,2.1621,2.1628,2.184,2.1842,2.1844,2.1824,0,0,0,0,0,0,2.1045,2.1072,2.1099,2.1184,2.1213,2.1331,2.133,2.1344,2.1386,2.1388,2.1474,2.1487,2.1528,2.1616,2.1634,2.1662,2.1634,2.1838,2.1841,2.1843,2.1823,2.1825,2.1827,0,0,0,0,0,2.1036,2.1088,2.11,2.1122,2.1248,2.1332,2.1349,2.1394,2.1388,2.1416,2.1466,2.1485,2.1647,2.1623,2.1645,2.1675,2.1836,2.184,2.1843,2.1821,2.1825,2.1827,0,0,0,0,0,0,2.1004,2.1099,2.1114,2.1195,2.1255,2.1339,2.1376,2.1396,2.146,2.1459,2.1514,2.1533,2.1609,2.165,2.1623,2.1748,2.1742,2.175,2.1718,2.1722,2.1724,2.1712,2.164,0,0,0,0,0,2.1006,2.1066,2.1146,2.121,2.1239,2.1302,2.134,2.137,2.1435,2.1461,2.1517,2.1579,2.1644,2.1685,2.175,2.1829,2.1848,2.1861,2.1863,2.1865,2.187,2.1915,2.1921,2.1856,2.1856,2.1856,0,0,2.1012,2.1071,2.1106,2.1205,2.1255,2.1315,2.1323,2.1387,2.1433,2.1471,2.1549,2.1592,2.1666,2.1745,2.1784,2.1782,2.1893,2.1869,2.187,2.1875,2.1919,2.1925,2.1931,2.1859,2.1858,2.1858,0,0,2.1052,2.1103,2.1162,2.1211,2.1287,2.1329,2.1342,2.1424,2.1454,2.1533,2.1563,2.1618,2.1729,2.178,2.182,2.188,2.1899,2.19,2.1912,2.1955,2.196,2.1965,2.1985,2.1992,2.1906,2.1906,2.1906,0,2.1049,2.1141,2.1189,2.1251,2.1294,2.1331,2.139,2.1437,2.1529,2.1558,2.1556,2.1695,2.1747,2.1839,2.1853,2.1885,2.1903,2.189,2.1955,2.1961,2.1966,2.1986,2.1993,2.1905,2.1905,2.1905,2.1905,0,2.1133,2.1197,2.1235,2.1322,2.137,2.143,2.1488,2.153,2.1556,2.1598,2.1679,2.1743,2.182,2.1845,2.1871,2.194,2.1937,2.1944,2.1939,2.197,2.199,2.1998,2.1905,2.1905,2.1905,2.1905,0,0,2.1157,2.127,2.1283,2.1323,2.141,2.146,2.1522,2.1597,2.1632,2.1695,2.1748,2.1842,2.1849,2.1894,2.1927,2.1965,2.2007,2.1968,2.197,2.1972,2.2087,2.2079,2.2088,2.2021,2.2023,2.2024,2.208,0,2.1207,2.1319,2.1364,2.1455,2.1514,2.155,2.1604,2.1663,2.1705,2.1761,2.1807,2.1872,2.1877,2.1904,2.1944,2.1994,2.2031,2.1991,2.2071,2.2073,2.205,2.2098,2.2091,2.214,2.2088,2.209,2.2091,0,2.128,2.1343,2.1439,2.1518,2.1544,2.1592,2.1664,2.1718,2.1786,2.1813,2.1864,2.1895,2.1962,2.1953,2.2046,2.2018,2.2054,2.2083,2.2087,2.2095,2.2083,2.2106,2.2158,2.2164,2.2103,2.2102,2.2101,0,2.1285,2.1394,2.1466,2.1499,2.1593,2.1626,2.1667,2.1733,2.1776,2.1839,2.1867,2.1938,2.1977,2.2031,2.208,2.2069,2.2169,2.2164,2.2193,2.2192,2.2211,2.2209,2.2267,2.2236,2.2236,2.2236,2.2236,0,2.1336,2.1393,2.147,2.1513,2.1579,2.1631,2.1694,2.1738,2.1797,2.185,2.1886,2.1936,2.1998,2.2056,2.2095,2.2165,2.2183,2.2207,2.2216,2.2203,2.22,2.2226,2.2223,2.2238,2.2238,2.2237,2.2237,0,2.1352,2.1406,2.1486,2.1569,2.1591,2.1635,2.1706,2.175,2.1793,2.186,2.1879,2.1947,2.2016,2.2071,2.2162,2.2188,2.2262,2.2274,2.2239,2.2244,2.2269,2.2265,2.2345,2.2358,2.2319,2.232,2.232,0,2.138,2.1425,2.1512,2.155,2.159,2.1651,2.1694,2.1747,2.1791,2.1872,2.1906,2.1978,2.2038,2.2147,2.2205,2.2275,2.2287,2.2311,2.2298,2.2283,2.2286,2.2282,2.2287,2.2311,2.2312,2.2312,2.2312,0,2.1423,2.1447,2.1508,2.1578,2.1628,2.1686,2.1744,2.1774,2.1838,2.1885,2.1956,2.2002,2.2095,2.2166,2.2241,2.2284,2.2309,2.2316,2.2326,2.2312,2.2289,2.23,2.2241,2.2313,2.2313,2.2313,2.2313,2.2313,2.1445,2.1487,2.1554,2.162,2.167,2.1724,2.1769,2.1818,2.1878,2.1957,2.1985,2.2058,2.2125,2.2229,2.2273,2.2331,2.2332,2.2347,2.2351,2.2353,2.2351,2.2281,2.2345,2.2345,2.2345,2.2345,2.2345,0,2.1489,2.1535,2.1595,2.1675,2.1728,2.1746,2.1812,2.1854,2.1918,2.1978,2.2037,2.2118,2.2187,2.2251,2.2323,2.2357,2.237,2.2374,2.2371,2.2381,2.2346,2.233,2.2362,2.2362,2.2362,2.2362,2.2362,2.2362,2.1518,2.1588,2.1621,2.1717,2.1762,2.1833,2.1869,2.1919,2.1967,2.2057,2.2114,2.2155,2.2216,2.2293,2.2357,2.2374,2.2399,2.24,2.2419,2.2386,2.2383,2.2381,2.2365,2.2405,2.2405,2.2449,2.2449,2.2449]},{"header":{"parameterUnit":"m.s-1","parameterCategory":1,"la1":30.2991,"la2":30.254,"lo1":-89.0895,"lo2":-89.0444,"dy":0.0017,"dx":0.0017,"nx":28,"ny":28,"refTime":"2024-06-24T03:00:00:Z","depth":0,"parameterNumber":3,"parameterNumberName":"V-component_of_WINDS"},"data":[0,0,0,0,0,0,0,0,0,0,0,0,0,0,0,0,0,0,0,0,0,0,0,0,0,0,0,0,0,0,0,0,0,0,0,0,0,0,0,0,0,0,0,0,0,0,0,0,0,0,0,0,0,0,0,0,0,0,4.4824,4.4824,0,4.4851,4.4851,4.4852,4.482,4.4819,4.4818,4.4817,4.4839,4.4841,4.4843,0,0,0,0,0,0,0,0,0,0,0,0,0,4.4741,4.4743,4.4824,4.4825,4.4825,4.4851,4.4851,4.4852,4.4821,4.4819,4.4818,4.4817,4.4839,4.4841,4.4843,0,0,0,0,0,0,0,0,0,0,0,0,0,4.4774,4.4744,4.4824,4.4813,4.4812,4.4851,4.4851,4.4852,4.4821,4.4819,4.4817,4.4816,4.4838,4.4841,4.4843,4.4893,0,0,4.4851,4.4852,0,0,0,0,0,0,0,0,4.4772,4.4777,4.4814,4.4814,4.4813,4.4831,4.483,4.4866,4.4821,4.4817,4.4817,4.4815,4.4838,4.484,4.4849,4.4894,4.4895,4.4851,4.4853,4.4854,4.4854,0,0,0,0,0,0,0,4.477,4.4775,4.4835,4.4815,4.4814,4.4805,4.4807,4.4837,4.4837,4.4818,4.4815,4.4819,4.4837,4.4846,4.4849,4.4896,4.4851,4.4853,4.4855,4.4856,4.4984,4.4986,0,0,0,0,0,0,4.4769,4.4774,4.4834,4.4835,4.4788,4.4808,4.4811,4.4827,4.4836,4.4836,4.4821,4.4818,4.4843,4.4846,4.485,4.4909,4.4854,4.4856,4.4857,4.4982,4.4984,4.4986,0,0,0,0,0,0,4.4768,4.4775,4.4833,4.4804,4.4811,4.4811,4.4829,4.4828,4.4838,4.4839,4.4838,4.4831,4.4842,4.4846,4.4883,4.4909,4.4857,4.4859,4.498,4.4983,4.4985,4.5028,0,0,0,0,0,0,4.4765,4.4775,4.4795,4.4805,4.4812,4.4867,4.4831,4.483,4.4843,4.4839,4.4848,4.4848,4.4841,4.488,4.4886,4.4912,4.4861,4.4977,4.4981,4.4984,4.5024,4.5032,4.5039,0,0,0,0,0,4.4763,4.4804,4.4796,4.4803,4.4838,4.4869,4.4873,4.4865,4.4845,4.4864,4.4865,4.4847,4.4906,4.4884,4.489,4.4918,4.4975,4.498,4.4984,4.5021,4.5031,4.5039,0,0,0,0,0,0,4.4795,4.4805,4.4796,4.4843,4.4855,4.4863,4.4887,4.4875,4.4893,4.4888,4.4877,4.4879,4.4918,4.4922,4.4897,4.4967,4.4937,4.4943,4.4963,4.4972,4.4979,4.4977,4.4863,0,0,0,0,0,4.4808,4.4834,4.4841,4.4881,4.4889,4.4887,4.49,4.4894,4.4905,4.491,4.4914,4.4924,4.4945,4.4959,4.4978,4.5025,4.5026,4.5047,4.5054,4.506,4.5065,4.509,4.51,4.5,4.5,4.5,0,0,4.4834,4.4843,4.486,4.4888,4.4897,4.4923,4.4892,4.492,4.4939,4.4914,4.4949,4.4952,4.4964,4.5006,4.5025,4.501,4.5093,4.5066,4.507,4.5072,4.5096,4.5105,4.5114,4.5003,4.5003,4.5002,0,0,4.4895,4.4905,4.494,4.495,4.4965,4.4964,4.4973,4.4983,4.4985,4.5021,4.5003,4.5024,4.506,4.5069,4.5078,4.5145,4.5129,4.5151,4.5188,4.5213,4.5221,4.5228,4.5251,4.526,4.5156,4.5156,4.5156,0,4.4925,4.4965,4.4959,4.4989,4.5002,4.4983,4.5018,4.5028,4.5047,4.5056,4.5039,4.5085,4.5091,4.5135,4.5152,4.516,4.5168,4.5149,4.5221,4.5227,4.5234,4.5256,4.5265,4.5159,4.5158,4.5158,4.5158,0,4.5001,4.5029,4.5056,4.5078,4.5093,4.5125,4.5123,4.5139,4.5132,4.5132,4.5169,4.5176,4.5197,4.5207,4.5199,4.525,4.5241,4.5223,4.5192,4.5246,4.5267,4.5275,4.5162,4.5161,4.5161,4.516,0,0,4.5082,4.5102,4.5111,4.5121,4.5137,4.5158,4.5189,4.5211,4.5225,4.524,4.5265,4.5297,4.5281,4.5291,4.5284,4.5306,4.5358,4.5285,4.5285,4.5298,4.5415,4.5428,4.5438,4.5348,4.535,4.5351,4.5414,0,4.5143,4.5199,4.5195,4.5248,4.5273,4.5257,4.5284,4.5296,4.5297,4.5318,4.5319,4.5342,4.5319,4.5325,4.5346,4.5347,4.5381,4.5343,4.537,4.5371,4.5368,4.5449,4.5463,4.5522,4.5422,4.5423,4.5424,0,4.5221,4.5241,4.5297,4.531,4.5321,4.5346,4.5366,4.5386,4.5399,4.5399,4.5412,4.5401,4.5432,4.5402,4.5443,4.5417,4.5428,4.543,4.5432,4.5434,4.5401,4.5452,4.5541,4.5549,4.5437,4.5436,4.5435,0,4.5274,4.5315,4.5354,4.5363,4.5379,4.5397,4.5404,4.5416,4.543,4.5447,4.5456,4.5475,4.5486,4.5501,4.5496,4.5475,4.5538,4.5508,4.5538,4.5538,4.5551,4.555,4.5642,4.5559,4.5559,4.5559,4.5559,0,4.5342,4.5377,4.5378,4.5402,4.544,4.5435,4.5472,4.5477,4.5488,4.5511,4.5497,4.5519,4.5511,4.5532,4.5528,4.5563,4.5568,4.5567,4.5566,4.5569,4.5569,4.5575,4.5571,4.5561,4.5561,4.556,4.556,0,4.5407,4.5409,4.5451,4.5464,4.5468,4.5496,4.5506,4.5528,4.5529,4.5559,4.5566,4.5567,4.5591,4.5588,4.5614,4.5612,4.5655,4.5648,4.5651,4.565,4.568,4.5677,4.5778,4.5791,4.57,4.5701,4.5702,0,4.545,4.5477,4.5494,4.551,4.552,4.5545,4.556,4.5556,4.5572,4.5589,4.5609,4.5633,4.5651,4.5691,4.5693,4.5713,4.5707,4.5741,4.5709,4.5712,4.5707,4.5705,4.5708,4.5747,4.5748,4.5749,4.5749,0,4.5527,4.5527,4.555,4.5574,4.5593,4.5611,4.5628,4.5641,4.5638,4.5657,4.5683,4.5697,4.5726,4.5749,4.5769,4.5774,4.5761,4.576,4.5768,4.577,4.5771,4.5771,4.5668,4.5757,4.5756,4.5756,4.5755,4.5755,4.5582,4.5605,4.5622,4.5648,4.5661,4.5677,4.5698,4.5704,4.5726,4.575,4.5746,4.5775,4.5788,4.5813,4.5821,4.5843,4.583,4.5841,4.5844,4.5847,4.5851,4.5768,4.5846,4.5846,4.5846,4.5846,4.5845,0,4.5657,4.5667,4.5692,4.5717,4.5738,4.5727,4.5745,4.5762,4.5789,4.5803,4.5822,4.5852,4.5875,4.588,4.5902,4.5919,4.5913,4.5924,4.5923,4.5924,4.5861,4.5852,4.5928,4.5928,4.5928,4.5928,4.5928,4.5928,4.5699,4.5738,4.5741,4.5786,4.5795,4.5826,4.5837,4.5852,4.5863,4.5898,4.5918,4.5922,4.5932,4.5955,4.5975,4.5976,4.5984,4.5998,4.5996,4.5937,4.5929,4.5921,4.5912,4.6,4.6,4.6058,4.6058,4.6059]}]]